Regional Weather Roundup
Issued by NWS

Home | Current Version | Previous Version | Graphics & Text | Print | Product List | Glossary On
Versions: 1 2 3 4 5 6 7 8 9 10 11 12 13 14 15 16 17 18 19 20 21 22 23 24 25 26 27 28 29 30 31 32 33 34 35 36 37 38 39 40 41 42 43 44 45 46 47 48 49 50
000
ASUS43 KLOT 041210
RWRIL

ILLINOIS REGIONAL WEATHER ROUNDUP
NATIONAL WEATHER SERVICE CHICAGO/ROMEOVILLE IL
600 AM CST WED MAR 04 2015

NOTE: "FAIR" INDICATES FEW OR NO CLOUDS BELOW 12,000 FEET WITH NO
SIGNIFICANT WEATHER AND/OR OBSTRUCTIONS TO VISIBILITY.

* THESE STATIONS ARE NOT UNDER NWS QUALITY CONTROL. THEY ALSO MAY NOT
  REPORT WEATHER SUCH AS PRECIPITATION OR FOG.

ILZ001-002-007-009-015-016-024-041300-
NORTHWEST ILLINOIS

CITY           SKY/WX    TMP DP  RH WIND       PRES   REMARKS
MOLINE         MOCLDY    11   1  64 NW16      30.12S WCI  -6
6HR MIN TEMP:  11; 6HR MAX TEMP:  20;

STERLING*      CLEAR     10   3  72 NW7       30.08S WCI   0
SAVANNA*       MOCLDY    11   2  66 NW8       30.11R WCI   0
$$

ILZ003-004-008-010-011-017-018-041300-
NORTH CENTRAL ILLINOIS

CITY           SKY/WX    TMP DP  RH WIND       PRES   REMARKS
ROCKFORD       MOCLDY    11   4  73 NW13      30.07R WCI  -4
6HR MIN TEMP:  11; 6HR MAX TEMP:  28;

FREEPORT*      PTCLDY    11   4  74 W10       30.08R WCI  -3
ROCHELLE*      PTCLDY    11   5  77 NW12G21   30.06R WCI  -4
DE KALB*       PTCLDY    10   5  79 NW20      30.02R WCI  -9
PERU*          PTCLDY    13   7  76 NW16G22   30.08R WCI  -3
$$

ILZ005-006-012>014-019>023-041300-
NORTHEAST ILLINOIS

CITY           SKY/WX    TMP DP  RH WIND       PRES   REMARKS
CHICAGO-OHARE  PTCLDY    18  12  77 NW14      30.00R WCI   4
6HR MIN TEMP:  18; 6HR MAX TEMP:  31;

CHICAGO-MIDWAY MOCLDY    22  14  71 NW10      30.00R WCI  11
6HR MIN TEMP:  22; 6HR MAX TEMP:  33;

AURORA         PTCLDY    13   6  74 NW17      30.03R WCI  -4
6HR MIN TEMP:  13; 6HR MAX TEMP:  31;

LANSING*       PTCLDY    24  18  79 NW6       29.99S WCI  17
JOLIET*        CLEAR     16  10  77 NW7       30.05R WCI   6
WAUKEGAN       CLEAR     18  11  74 W7        30.00R WCI   9
6HR MIN TEMP:  18; 6HR MAX TEMP:  30;

DUPAGE AIRPORT PTCLDY    15   9  76 NW15      30.02R WCI   0
6HR MIN TEMP:  15; 6HR MAX TEMP:  30;

KANKAKEE*      PTCLDY    21  17  84 NW5       30.03R WCI  14
WHEELING       PTCLDY    19  12  74 NW12      30.02R WCI   7
6HR MIN TEMP:  19; 6HR MAX TEMP:  31;

MORRIS*        PTCLDY    14  10  84 NW15      30.05R WCI  -1
ROMEOVILLE*    PTCLDY    16  10  79 NW13      30.03R WCI   2
NORTHERLY ISL    N/A     23  16  74 W13         N/A  WCI  11
$$

LMZ740>746-041300-
SOUTHERN LAKE MICHIGAN

STATION/POSITION SKY/WX   TEMP    WIND        PRES    VSBY  WAVE
                          AIR SEA DIR/SP/G                  HT/PER
                          (F)     (DEG/KT/KT) (MB)    (MI)  (FT/S)
WAUKEGAN HARBOR            20                   N/A
HARRISON CRIB              23     290/ 15/ 19   N/A
BURNHAM HARBOR             23     270/  7/ 13   N/A
CALUMET HARBOR             24     290/  9/ 12 1014.4F
MICHIGAN CITY              27     280/ 16/ 19   N/A
$$

ILZ025>027-034>036-040-047-049-050-058-095>099-041300-
WEST-CENTRAL ILLINOIS

CITY           SKY/WX    TMP DP  RH WIND       PRES   REMARKS
QUINCY         PTCLDY    14   6  70 N18       30.15R WCI  -3
GALESBURG*     CLEAR     11   4  73 NW13      30.11S WCI  -4
MACOMB*        PTCLDY    12   6  77 NW14      30.16R WCI  -4
JACKSONVILLE*  PTCLDY    17   9  69 NW17      30.10S WCI   2
PITTSFIELD*    PTCLDY    18   9  69 NW16G28   30.13R WCI   3
$$

ILZ028>032-037-038-041>044-048-051>054-059>061-041300-
CENTRAL ILLINOIS

CITY           SKY/WX    TMP DP  RH WIND       PRES   REMARKS
PONTIAC        CLEAR     15  10  81 W15G21    30.07R WCI   0
BLOOMINGTON    PTCLDY    16  10  77 NW16      30.06R WCI   1
DECATUR        PTCLDY    20  12  71 NW21G28   30.06R WCI   4
PEORIA         PTCLDY    14   3  61 VRB7G16   30.11R WCI   4
6HR MIN TEMP:  14; 6HR MAX TEMP:  30;

LACON*         PTCLDY    11   4  73 NW12      30.11R WCI  -3
LINCOLN*       PTCLDY    18  10  70 NW12G17   30.09F WCI   5
SPRINGFIELD    PTCLDY    18  10  71 NW14      30.07R WCI   4
6HR MIN TEMP:  18; 6HR MAX TEMP:  34;

TAYLORVILLE    PTCLDY    21  16  79 N18G24    30.06F WCI   6
$$

ILZ033-039-045-046-055>057-062-063-041300-
EAST-CENTRAL ILLINOIS

CITY           SKY/WX    TMP DP  RH WIND       PRES   REMARKS
CHAMPAIGN      MOCLDY    20  14  77 NW12G25   30.04R WCI   8
DANVILLE*      CLOUDY    25  21  83 NW14G22   29.99R WCI  13
RANTOUL*       CLOUDY    21  15  79 NW15G21   30.04R WCI   7
MATTOON        CLOUDY    27  22  81 NW22      30.02R WCI  13
PARIS*         CLOUDY    28  25  87 NW20G25   30.03R WCI  15
$$

ILZ079-100>102-041300-
SOUTHWEST ILLINOIS

CITY           SKY/WX    TMP DP  RH WIND       PRES   REMARKS
BELLEVILLE     CLOUDY    31  28  88 N14       30.03R WCI  21
CAHOKIA*       CLOUDY    30  22  72 N18       30.07R WCI  18
SPARTA*        CLOUDY    33  30  90 N7        30.04R WCI  26
$$

ILZ064>066-069>071-074>076-080>082-084>086-088>090-092>094-041300-
SOUTH-CENTRAL ILLINOIS

CITY           SKY/WX    TMP DP  RH WIND       PRES   REMARKS
CARBONDALE     LGT RAIN  34  31  88 N7        30.02R WCI  28
6HR MIN TEMP:  34; 6HR MAX TEMP:  41; 6HR PCP:  0.17;

CAIRO*         RAIN     N/A N/A N/A N14       29.98R
EFFINGHAM*     CLOUDY    31  25  79 NW15G21   30.03R WCI  20
MARION         RAIN      36  34  93 N7        30.02R WCI  30
MT. VERNON     CLOUDY    34  28  80 CALM      30.03R
CENTRALIA*     CLOUDY    32  28  83 N17G24    30.02R WCI  21
SALEM*         CLOUDY    33  28  83 NW17      30.03R WCI  22
METROPOLIS*    LGT RAIN  39  39 100 N9        29.96R WCI  33
$$

ILZ067-068-072-073-078-083-087-091-041300-
SOUTHEAST ILLINOIS

CITY           SKY/WX    TMP DP  RH WIND       PRES   REMARKS
LAWRENCEVILLE  CLOUDY    34  31  88 N8        30.00R WCI  27
FLORA*         MOCLDY    33  31  92 N8        30.01R WCI  26
FAIRFIELD*     CLOUDY    33  32  94 N6        30.01R WCI  28
HARRISBURG*    LGT RAIN  34  34 100 N9        30.02R WCI  27
ROBINSON*      CLOUDY    33  30  88 N7        30.00R WCI  27
CARMI*         LGT RAIN  36  35  99 N8        30.00R WCI  29
$$

ABBREVIATIONS USED IN REMARKS
   TC - TEMPERATURE IN CELSIUS
  WCI - WIND CHILL INDEX
   HX - HEAT INDEX
  VSB - VISIBILITY
$$




USA.gov is the U.S. government's official web portal to all federal, state and local government web resources and services.